Find Globalstar M095

NORAD ID: 39075 Int'l Des: 2013-005 Owner: GLOBL Country: US Constellation: globalstar operational
LEOCIRCULAR

当前视图

正在加载3D地球...

About Globalstar M095

Globalstar M095 (NORAD 39075) is a globalstar constellation satellite launched Feb 6, 2013 by GLOBL of US. It operates in LEO, CIRCULAR orbit with a mass of 715.00 kg.

关于 Globalstar M095

正在加载描述...

即将过境

Passes for default location (London). Set your location on the main map for personalized predictions.

高度历史

Loading altitude history...

两行轨道根数

1 39075U 13005D 26194.20105698 -.00000117 00000-0 -75049-4 0 9996
2 39075 52.0067 120.4160 0000702 38.1669 321.9247 12.62265679620677
Epoch: Jul 13, 2026 • Age: 26 hours

当前状态

高度 1429.1 km
远地点 / 近地点 N/A
速度 7.15 km/s
星下点 -44.54°S, 47.3°W
发射日期 Feb 6, 2013
运行时间 13.4 years
类型 communications

技术详情

分类 Payload
质量 715.00 kg
干质量 500.00 kg
总质量 715.00 kg
长度 4.00 m
直径 2.00 m
跨度 12.00 m
形状 Trap Cyl + 2 Pan
制造商 THALR
平台类型 Prisma
阶段状态 In Orbit
所有者/国家 GLOBL/US

Most Searched